Weather History for West Palm Beach, FL

Change the Weather History Date:

Tuesday, November 23, 2010

  Actual Average Record
Temperature  
Mean Temperature 73 °F 72 °F  
Max Temperature 82 °F 79 °F 89 °F (1948)
Min Temperature 64 °F 64 °F 44 °F (1944)
Degree Days  
Heating Degree Days 0 1  
Month to date heating degree days 9 2  
Since 1 July heating degree days 9 3  
Cooling Degree Days 8 7  
Month to date cooling degree days 180 197  
Year to date cooling degree days 3948 3818  
Growing Degree Days 23 (Base 50)    
Moisture  
Dew Point 62 °F    
Average Humidity 67    
Maximum Humidity 87    
Minimum Humidity 47    
Precipitation  
Precipitation 0.00 in 0.13 in 2.55 in (1977)
Month to date precipitation 1.14 3.83  
Year to date precipitation 51.85 58.03  
Snow  
Snow 0.00 in - - ()
Month to date snowfall 0.0  
Since 1 July snowfall 0.0  
Since 1 September snowfall 0.0  
Snow Depth 0.00 in    
Sea Level Pressure  
Sea Level Pressure 30.11 in    
Wind  
Wind Speed 7 mph (NE)    
Max Wind Speed 16 mph    
Max Gust Speed 22 mph    
Visibility 10 miles    
Events      
T = Trace of Precipitation, MM = Missing Value Source: NWS Daily Summary

Daily Weather History Graph

Daily Weather History Graph

Search for Another Location

Airport:

Trip Planner

Search our weather history database for the weather conditions in past years. The results will help you decide how hot, cold, wet, or windy it might be!

Date:

Astronomy

Nov. 23, 2010 Rise Set
Actual Time 6:45 AM EST 5:27 PM EST
Civil Twilight 6:20 AM EST 5:52 PM EST
Nautical Twilight 5:52 AM EST 6:20 PM EST
Astronomical Twilight 5:24 AM EST 6:48 PM EST
Moon 7:15 PM EST (11/23) 8:33 AM EST (11/23)
Length of Visible Light 11h 31m
Length of Day
10h 41m
Waning Gibbous, 96% of the Moon is Illuminated
Nov 23
Waning Gibbous
Nov 28
Last Quarter
Dec 5
New
Dec 13
First Quarter
Dec 21
Full

Hourly Weather History & Observations

Time (EST) Temp. Heat Index Dew Point Humidity Pressure Visibility Wind Dir Wind Speed Gust Speed Precip Events Conditions
12:53 AM 73.0 °F - 61.0 °F 66% 30.15 in 10.0 mi East 9.2 mph - N/A   Partly Cloudy
1:53 AM 73.9 °F - 62.1 °F 66% 30.14 in 10.0 mi East 5.8 mph - N/A   Clear
2:53 AM 73.0 °F - 63.0 °F 71% 30.13 in 10.0 mi ENE 5.8 mph - N/A   Partly Cloudy
3:53 AM 68.0 °F - 60.1 °F 76% 30.12 in 10.0 mi North 3.5 mph - N/A   Partly Cloudy
4:53 AM 64.9 °F - 61.0 °F 87% 30.13 in 10.0 mi Calm Calm - N/A   Partly Cloudy
5:53 AM 64.0 °F - 60.1 °F 87% 30.13 in 10.0 mi NNW 4.6 mph - N/A   Partly Cloudy
6:53 AM 64.9 °F - 61.0 °F 87% 30.14 in 10.0 mi NNW 5.8 mph - N/A   Partly Cloudy
7:53 AM 66.9 °F - 63.0 °F 87% 30.15 in 10.0 mi Calm Calm - N/A   Scattered Clouds
8:53 AM 77.0 °F - 64.0 °F 64% 30.15 in 10.0 mi North 3.5 mph - N/A   Scattered Clouds
9:53 AM 80.1 °F 81.1 °F 61.0 °F 52% 30.15 in 10.0 mi ENE 10.4 mph - N/A   Scattered Clouds
10:53 AM 82.0 °F 82.7 °F 61.0 °F 49% 30.15 in 10.0 mi ENE 12.7 mph - N/A   Scattered Clouds
11:53 AM 80.1 °F 81.2 °F 62.1 °F 54% 30.13 in 10.0 mi ENE 9.2 mph - N/A   Scattered Clouds
12:53 PM 82.0 °F 83.0 °F 62.1 °F 51% 30.10 in 10.0 mi NNE 10.4 mph 17.3 mph N/A   Scattered Clouds
1:53 PM 80.1 °F 81.2 °F 62.1 °F 54% 30.09 in 10.0 mi NE 12.7 mph - N/A   Mostly Cloudy
2:53 PM 80.1 °F 81.1 °F 61.0 °F 52% 30.08 in 10.0 mi NE 13.8 mph - N/A   Mostly Cloudy
3:53 PM 80.1 °F 81.1 °F 61.0 °F 52% 30.08 in 10.0 mi NNE 12.7 mph - N/A   Mostly Cloudy
4:53 PM 78.1 °F - 62.1 °F 58% 30.07 in 10.0 mi NE 11.5 mph - N/A   Scattered Clouds
5:53 PM 77.0 °F - 60.1 °F 56% 30.08 in 10.0 mi NE 8.1 mph - N/A   Scattered Clouds
6:53 PM 75.9 °F - 63.0 °F 64% 30.09 in 10.0 mi NE 6.9 mph - N/A   Scattered Clouds
7:53 PM 75.9 °F - 63.0 °F 64% 30.09 in 10.0 mi NE 8.1 mph - N/A   Scattered Clouds
8:53 PM 75.9 °F - 62.1 °F 62% 30.10 in 10.0 mi ENE 6.9 mph - N/A   Scattered Clouds
9:53 PM 75.9 °F - 64.9 °F 69% 30.10 in 10.0 mi ENE 8.1 mph - N/A   Scattered Clouds
10:53 PM 75.9 °F - 61.0 °F 60% 30.10 in 10.0 mi NE 4.6 mph - N/A   Mostly Cloudy
11:53 PM 75.0 °F - 64.0 °F 69% 30.09 in 10.0 mi Calm Calm - N/A   Scattered Clouds